Weather in Washington

United States     38°39′08″N   87°10′15″W
temp.,
°C
wind,
m/s
gust,
m/s
humid.,
%
clouds,
%
prec.,
mm/h
press.,
hPa
HPBL,
m
7 may, fri
fri723:00+8nnw513890 0.0 1019524
02:00+5nnw37900 0.0 1019125
05:00+5wnw34855 0.0 101851
08:00+6wsw37890 0.0 1019200
11:00+14wnw57623 0.0 1019832
14:00+17w61150100 0.0 10162534
17:00+16wnw812665 1.1 10151261
20:00+13nw5107132 1.6 1016357
8 may, sat
sat823:00+8nw33777 0.0 101844
02:00+5ne34835 0.0 101968
05:00+4e118517 0.0 102010
08:00+6ene238191 0.0 1022108
11:00+8se2374100 0.0 1021287
14:00+9se3477100 0.0 1021288
17:00+8se3785100 0.4 1019413
20:00+7ese51095100 3.0 1017385
9 may, sun
sun923:00+7ese61195100 0.0 1016324
02:00+9se71697100 0.7 1011428
05:00+13s82190100 0.3 1006654
08:00+15ssw102192100 3.9 10051154
11:00+18ssw112090100 5.3 10041192
14:00+17ssw112094100 6.3 10041121
17:00+18sw102095100 1.3 10031271
20:00+9n81396100 3.9 1008409
10 may, mon
mon1023:00+7n61093100 0.0 1013518
02:00+6n5109288 0.0 1015504
05:00+6nne5887100 0.0 1017707
08:00+7nne4885100 0.0 1018808
11:00+11ne676617 0.0 10191097
14:00+15nne6757100 0.0 10201612
17:00+13n6662100 0.0 10211119
20:00+11n61070100 0.0 1023528
11 may, tue
tue1123:00+9nne5106497 0.0 1024385
02:00+5nne410715 0.0 1026240
05:00+3nne410730 0.0 1027219
08:00+3nne39730 0.0 1029243
11:00+11ne58520 0.0 1029798
14:00+14nne56460 0.0 10281493
17:00+15ne56505 0.0 10271599
20:00+12nne367239 0.0 1028112